sat.trackr.live / text

‹ back to catalog

KSLV-II DUMMY

NORAD 52895 · 2022-065B

PAYLOAD ACTIVE UNKNOWN

§ Identity

Operator
Country
SKOR
Launch date
2022-06-21
Launch site
NSC
Launch vehicle
Mass (kg)
RCS (m²)

External: N2YO · Heavens-Above · Gunter

§ Orbital elements

Epoch: 2026-05-25T03:02:42.673920Z

Period
98.72 min
Inclination
98.2312°
Eccentricity
0.0009525
Mean motion
14.58687507 rev/d
Perigee alt
690.7 km
Apogee alt
704.2 km
Semi-major
7,075.6 km
B*
1.4642e-5
RAAN
285.1997°
Arg perigee
106.0625°
Mean anomaly
254.1624°
Rev number
20,899

§ Raw data

KSLV-II DUMMY1 52895U 22065B   26145.12688280  .00000022  00000+0  14642-4 0  99912 52895  98.2312 285.1997 0009525 106.0625 254.1624 14.58687507208991

JSON: /api/v1/satellites/52895 · /tle

For live sub-satellite position, see the globe view (requires WebGL).

§ Visibility from observer

Set your observer location to see the next 7 days of passes ≥ 10°. The values pass through the URL so the page stays shareable.

No JS? Fill the form by hand. The geolocation button needs JavaScript.